Home   Weather   Smara   Past weeks

Past Weather in Smara, Western Sahara — Yesterday and Last 2 Weeks

Now
63 °F

Clear.


Feels Like: 63 °F
Forecast: N/A
Wind: 15 mph from Northeast

Location: Laayoune/Hassan Isl

Current Time: Feb 26, 2017 at 9:49:02 pm

Latest Report: Feb 26, 2017 at 9:00 pm


Visibility: 6 mi

Pressure: 30.12 "Hg

Humidity: 73%

Dew Point: 54 °F

Location of SmaraLocation

Past Weather in Smara — Graph

°F

Smara Temperature Yesterday

Maximum temperature yesterday: 73 °F (at 2:00 pm)
Minimum temperature yesterday: 55 °F (at 5:00 am)
Average temperature yesterday: 64 °F

High & Low Weather Summary for the Past Weeks

 TemperatureHumidityPressure
High88 °F (Feb 17, 3:00 pm)100% (Feb 13, 12:00 am)30.18 "Hg (Feb 13, 12:00 am)
Low50 °F (Feb 13, 4:00 am)2% (Feb 17, 5:00 pm)29.65 "Hg (Feb 12, 6:00 am)
Average64 °F63%30.03 "Hg
* Reported Feb 11 9:00 pm — Feb 26 9:00 pm, Smara, Weather by CustomWeather, © 2017

Note: Actual official high and low records may vary slightly from our data, if they occured in-between our weather recording intervals... More about our weather records

Advertising

Smara Weather History for the Previous 24 Hours

Scroll right to see more
 ConditionsComfort  
Time TempWeatherWind HumidityBarometerVisibility
9:00 pm
Sun, Feb 26
63 °FClear.15 mph73%30.12 "Hg6 mi
8:00 pm63 °FClear.17 mph73%30.12 "Hg5 mi
7:00 pm64 °FClear.17 mph68%30.09 "Hg5 mi
6:00 pm70 °FClear.20 mph53%30.09 "Hg5 mi
5:00 pm72 °FPassing clouds.18 mph50%30.07 "Hg5 mi
4:00 pm73 °FClear.18 mph47%30.07 "Hg5 mi
3:00 pm73 °FClear.16 mph44%30.09 "Hg5 mi
2:00 pm73 °FClear.15 mph44%30.12 "Hg5 mi
1:00 pm72 °FClear.16 mph44%30.15 "Hg5 mi
12:00 pm70 °FPassing clouds.16 mph50%30.18 "HgN/A
11:00 am68 °FPassing clouds.20 mph53%30.18 "Hg5 mi
10:00 am64 °FPassing clouds.18 mph60%30.18 "Hg5 mi
9:00 am61 °FScattered clouds.13 mph68%30.18 "Hg5 mi
8:00 am57 °FPassing clouds.13 mph77%30.15 "HgN/A
7:00 am57 °FPassing clouds.8 mph72%30.15 "HgN/A
6:00 am57 °FPassing clouds.9 mph72%30.12 "HgN/A
5:00 am57 °FPassing clouds.13 mph72%30.12 "HgN/A
4:00 am55 °FPassing clouds.5 mph77%30.15 "HgN/A
3:00 am57 °FPassing clouds.6 mph72%30.15 "HgN/A
2:00 am57 °FPassing clouds.7 mph72%30.15 "HgN/A
1:00 am57 °FPassing clouds.7 mph82%30.18 "HgN/A
12:00 am59 °FPassing clouds.9 mph77%30.18 "HgN/A
11:00 pm
Sat, Feb 25
61 °FPassing clouds.9 mph72%30.18 "HgN/A
10:00 pm59 °FPassing clouds.9 mph72%30.18 "HgN/A
9:00 pm61 °FPassing clouds.13 mph68%30.18 "HgN/A
Weather by CustomWeather, © 2017

See weather overviewHow to use our weather pages